919  
ASUS44 KHUN 151310  
RWRHUN  
 
WEATHER ROUNDUP FOR THE TENNESSEE VALLEY  
NATIONAL WEATHER SERVICE HUNTSVILLE AL  
800 AM CDT WED AUG 15 2018  
 
ALZ001>004-151400-  
NORTHWEST ALABAMA  
 
CITY SKY/WX TMP DP RH WIND PRES REMARKS
 
COURTLAND HCN N/A 73 N/A N/A CALM N/A  
RUSSELLVILLE N/A 70 N/A N/A MISG N/A  
SHOALS AIRPORT FAIR 75 70 84 CALM 30.07R  
SHOALS TVA RES N/A 72 N/A N/A MISG N/A  

 
 
ALZ005>007-016-151400-  
NORTH CENTRAL ALABAMA  
 
CITY SKY/WX TMP DP RH WIND PRES REMARKS
 
CULLMAN AG STN N/A 70 N/A N/A CALM N/A  
DECATUR AP FAIR 74 70 87 E3 30.08R  
HUNTSVILLE AP CLOUDY 76 71 85 S3 30.08R  
MERIDIANVILLE SUNNY 73 67 84 CALM 30.09R  
REDSTONE ARSN FAIR 75 70 84 S3 30.07R  
VINEMONT AP FAIR 73 69 87 CALM 30.11R  

 
 
ALZ008>010-151400-  
NORTHEAST ALABAMA  
 
CITY SKY/WX TMP DP RH WIND PRES REMARKS
 
ALBERTVILLE FAIR 73 73 100 CALM 30.10R  
FORT PAYNE FAIR 68 64 88 CALM 30.10R  
SCOTTSBORO AP FAIR 70 70 100 CALM 30.10R  
SCOTTSBORO HCN N/A 68 N/A N/A MISG N/A  
VALLEY HEAD N/A 68 N/A N/A MISG N/A  

 
 
TNZ076-096-097-151400-  
SOUTHEASTERN MIDDLE TENNESSEE  
 
CITY SKY/WX TMP DP RH WIND PRES REMARKS
 
TULLAHOMA SUNNY 72 68 88 CALM 30.10R  
WINCHESTER SUNNY 72 66 83 CALM 30.09R  

 
   
..SURROUNDING SITES
 
 
 
CITY SKY/WX TMP DP RH WIND PRES REMARKS
 
ATLANTA PTSUNNY 78 66 66 W5 30.11R  
ANNISTON FAIR 73 69 87 CALM 30.10R  
BIRMINGHAM PTSUNNY 80 71 74 CALM 30.11R  
CHATTANOOGA CLOUDY 72 66 81 CALM 30.11R  
CORINTH N/A 75 73 94 S5 30.04S  
DALTON FAIR 68 68 100 SE5 30.12R  
GADSDEN FAIR 73 73 100 CALM 30.10R  
GOLDEN TRNGL FAIR 77 73 87 S3 30.06R  
HALEYVILLE FAIR 74 70 87 CALM 30.11R  
JACKSON TN FAIR 77 71 82 S7 30.02S  
LAWRENCEBURG SUNNY 75 70 83 CALM 30.08R  
LEWISBURG PTSUNNY 72 70 94 CALM 30.07R  
MEMPHIS FAIR 80 70 71 VRB7 30.01R  
MURFREESBORO PTSUNNY 73 68 83 CALM 30.06R  
NASHVILLE CLOUDY 76 65 68 E5 30.07R  
OXFORD MS FAIR 75 66 73 S6 30.06R  
ROME FAIR 72 66 81 CALM 30.10R  
SAVANNAH SUNNY 77 73 88 S7 30.04R  
SELMER SUNNY 77 70 78 S3 30.04R  
TUPELO FAIR 78 72 81 S3 30.05R  
TUSCALOOSA FAIR 76 72 87 CALM 30.06R  

 
   
..GULF COAST WEATHER
 
 
 
CITY SKY/WX TMP DP RH WIND PRES REMARKS
 
GULFPORT FAIR 83 76 79 CALM 30.02S HX 91  
PASCAGOULA FAIR 79 74 84 NE5 30.04R  
MOBILE FAIR 79 75 87 NE5 30.06R  
GULF SHORES FAIR 76 76 98 NE3 30.04S  
PENSACOLA PTSUNNY 82 77 84 NE3 30.04 HX 90  
DESTIN FAIR 82 78 88 E3 30.05R HX 91  
PANAMA CITY DRIZZLE 79 77 94 CALM 30.05R  
APPALACHICOLA FAIR 83 79 88 NW3 30.06R HX 94  

 
 
 
 
CLICK HERE TO GO TO PREVIOUS BULLETINS.

The Nexlab AL Page
The Nexlab TN Page Main Text Page